EWG6AT EGCC-EDDL

Flight info

Callsign EWG6AT
Flight time 1h 10m
Altitude 35000
Route SONEX L975 DESIG L603 LAMSO DCT EVELI DCT PAM P62 PISAP PISAP1A
Aircraft A320/M-SDE3FGHIRWY/LB1

Departure

Time 2026-05-04 16:44
Airport Manchester Airport (EGCC)

Arrival

Time 2026-05-04 17:54
Airport Düsseldorf Airport (EDDL)
Time Latitude Longitude Altitude Speed Heading
2026-05-04 15:58 53.36917 -2.28740 255 ft 0 kts 135°
2026-05-04 16:01 53.36918 -2.28740 255 ft 0 kts 135°
2026-05-04 16:18 53.36917 -2.28740 255 ft 0 kts 135°
2026-05-04 16:18 53.36921 -2.28746 255 ft 2 kts 135°
2026-05-04 16:19 53.36955 -2.28797 255 ft 2 kts 199°
2026-05-04 16:19 53.36977 -2.28756 255 ft 0 kts 225°
2026-05-04 16:22 53.36889 -2.28905 255 ft 11 kts 224°
2026-05-04 16:23 53.36699 -2.28961 255 ft 11 kts 134°
2026-05-04 16:24 53.36496 -2.28617 255 ft 17 kts 135°
2026-05-04 16:25 53.36416 -2.28483 255 ft 2 kts 136°
2026-05-04 16:26 53.36267 -2.28157 255 ft 13 kts 134°
2026-05-04 16:26 53.36090 -2.27889 255 ft 9 kts 142°
2026-05-04 16:27 53.36018 -2.27794 255 ft 7 kts 142°
2026-05-04 16:28 53.35798 -2.27706 251 ft 11 kts 133°
2026-05-04 16:28 53.35630 -2.27537 246 ft 7 kts 141°
2026-05-04 16:29 53.35629 -2.27535 246 ft 0 kts 141°
2026-05-04 16:30 53.35585 -2.27475 245 ft 7 kts 141°
2026-05-04 16:31 53.35572 -2.27458 245 ft 0 kts 141°
2026-05-04 16:35 53.35553 -2.27432 246 ft 13 kts 141°
2026-05-04 16:35 53.35253 -2.27284 239 ft 13 kts 226°
2026-05-04 16:36 53.35188 -2.27415 237 ft 16 kts 231°
2026-05-04 16:36 53.35159 -2.27474 238 ft 0 kts 230°
2026-05-04 16:39 53.35134 -2.27520 235 ft 2 kts 230°
2026-05-04 16:39 53.35066 -2.27673 232 ft 12 kts 230°
2026-05-04 16:40 53.34916 -2.27904 229 ft 13 kts 173°
2026-05-04 16:40 53.34750 -2.27857 223 ft 6 kts 229°
2026-05-04 16:41 53.34743 -2.27870 223 ft 0 kts 230°
2026-05-04 16:43 53.34743 -2.27871 223 ft 1 kts 230°
2026-05-04 16:43 53.34194 -2.29010 230 ft 127 kts 230°
2026-05-04 16:43 53.33555 -2.30343 447 ft 156 kts 232°
2026-05-04 16:44 53.31512 -2.37124 2753 ft 192 kts 271°
2026-05-04 16:45 53.32612 -2.41653 3528 ft 239 kts 314°
2026-05-04 16:46 53.37628 -2.43435 5902 ft 265 kts
2026-05-04 16:46 53.41320 -2.44333 7559 ft 275 kts 338°
2026-05-04 16:47 53.45097 -2.45411 9290 ft 286 kts 12°
2026-05-04 16:47 53.48196 -2.41344 10886 ft 298 kts 64°
2026-05-04 16:48 53.48416 -2.30890 13033 ft 316 kts 80°
2026-05-04 16:48 53.49007 -2.27231 13232 ft 339 kts 73°
2026-05-04 16:49 53.50112 -2.19055 13883 ft 371 kts 82°
2026-05-04 16:49 53.50704 -2.10346 15149 ft 378 kts 83°
2026-05-04 16:50 53.51384 -2.01499 16441 ft 385 kts 85°
2026-05-04 16:50 53.50617 -1.92603 17667 ft 391 kts 103°
2026-05-04 16:51 53.49402 -1.83634 18837 ft 396 kts 103°
2026-05-04 16:51 53.48786 -1.79108 19363 ft 398 kts 103°
2026-05-04 16:51 53.47550 -1.70005 20498 ft 401 kts 103°
2026-05-04 16:52 53.46307 -1.60881 21561 ft 405 kts 103°
2026-05-04 16:52 53.45674 -1.56267 22086 ft 407 kts 103°
2026-05-04 16:53 53.44393 -1.46962 23081 ft 411 kts 103°
2026-05-04 16:53 53.42428 -1.32806 24404 ft 417 kts 102°
2026-05-04 16:54 53.41771 -1.28117 24796 ft 419 kts 102°
2026-05-04 16:55 53.39072 -1.08922 26349 ft 426 kts 102°
2026-05-04 16:55 53.37700 -0.99276 27080 ft 430 kts 102°
2026-05-04 16:56 53.36299 -0.89470 27747 ft 434 kts 102°
2026-05-04 16:56 53.34158 -0.74631 28740 ft 440 kts 102°
2026-05-04 16:57 53.33433 -0.69626 29076 ft 442 kts 102°
2026-05-04 16:57 53.31980 -0.59653 29732 ft 444 kts 102°
2026-05-04 16:58 53.29764 -0.44647 30909 ft 440 kts 102°
2026-05-04 16:58 53.29030 -0.39684 31264 ft 439 kts 102°
2026-05-04 16:59 53.27563 -0.29792 31984 ft 438 kts 102°
2026-05-04 17:00 53.24622 -0.10160 33460 ft 436 kts 103°
2026-05-04 17:00 53.22381 0.04583 34232 ft 440 kts 104°
2026-05-04 17:01 53.20858 0.14544 34683 ft 443 kts 104°
2026-05-04 17:01 53.19325 0.24505 35030 ft 445 kts 104°
2026-05-04 17:02 53.17774 0.34505 35057 ft 446 kts 104°
2026-05-04 17:03 53.15435 0.49514 35056 ft 446 kts 104°
2026-05-04 17:03 53.13083 0.64536 35051 ft 450 kts 105°
2026-05-04 17:04 53.09874 0.84698 35045 ft 450 kts 105°
2026-05-04 17:05 53.06636 1.04802 35038 ft 451 kts 106°
2026-05-04 17:06 53.04179 1.19871 35029 ft 452 kts 106°
2026-05-04 17:07 53.01981 1.33301 35039 ft 449 kts 106°
2026-05-04 17:07 53.00046 1.45075 35052 ft 446 kts 106°
2026-05-04 17:08 52.97532 1.60106 35045 ft 458 kts 107°
2026-05-04 17:09 52.95815 1.70323 35045 ft 459 kts 107°
2026-05-04 17:09 52.94099 1.80538 35045 ft 459 kts 108°
2026-05-04 17:10 52.89756 2.05971 35033 ft 459 kts 108°
2026-05-04 17:11 52.88014 2.16108 35029 ft 460 kts 108°
2026-05-04 17:12 52.85666 2.29726 35029 ft 461 kts 108°
2026-05-04 17:13 52.81192 2.55212 35013 ft 461 kts 109°
2026-05-04 17:14 52.77582 2.75524 35015 ft 462 kts 109°
2026-05-04 17:15 52.74849 2.90808 35017 ft 463 kts 109°
2026-05-04 17:16 52.70797 3.10873 35001 ft 461 kts 115°
2026-05-04 17:17 52.65977 3.30415 35022 ft 461 kts 115°
2026-05-04 17:18 52.62026 3.50537 35008 ft 464 kts 109°
2026-05-04 17:19 52.58478 3.71007 34996 ft 465 kts 110°
2026-05-04 17:20 52.54890 3.91437 34995 ft 466 kts 110°
2026-05-04 17:20 52.52178 4.06801 34979 ft 467 kts 110°
2026-05-04 17:21 52.48532 4.27233 34976 ft 468 kts 110°
2026-05-04 17:22 52.46686 4.37512 34984 ft 468 kts 110°
2026-05-04 17:23 52.42973 4.57911 34987 ft 468 kts 111°
2026-05-04 17:24 52.40178 4.73165 35017 ft 465 kts 111°
2026-05-04 17:25 52.36443 4.93381 35008 ft 464 kts 111°
2026-05-04 17:26 52.32319 5.13265 34989 ft 456 kts 120°
2026-05-04 17:27 52.25583 5.36683 34974 ft 456 kts 120°
2026-05-04 17:28 52.20210 5.55232 34971 ft 456 kts 121°
2026-05-04 17:29 52.16107 5.69284 34320 ft 456 kts 121°
2026-05-04 17:29 52.12031 5.83150 32799 ft 452 kts 121°
2026-05-04 17:30 52.07955 5.96979 30910 ft 456 kts 120°
2026-05-04 17:31 52.05190 6.06319 29599 ft 460 kts 120°
2026-05-04 17:31 52.00997 6.20403 27690 ft 459 kts 119°
2026-05-04 17:32 51.98237 6.29633 26502 ft 450 kts 119°
2026-05-04 17:33 51.94169 6.43112 24780 ft 441 kts 119°
2026-05-04 17:33 51.92821 6.47549 24244 ft 437 kts 119°
2026-05-04 17:34 51.87155 6.58477 22484 ft 416 kts 147°
2026-05-04 17:34 51.84630 6.60660 21857 ft 408 kts 163°
2026-05-04 17:35 51.76323 6.61081 20122 ft 398 kts 183°
2026-05-04 17:35 51.70803 6.60614 18999 ft 394 kts 183°
2026-05-04 17:35 51.68071 6.60368 18455 ft 392 kts 183°
2026-05-04 17:36 51.65388 6.60173 17856 ft 390 kts 178°
2026-05-04 17:36 51.62715 6.60999 17244 ft 387 kts 159°
2026-05-04 17:36 51.60443 6.63161 16652 ft 384 kts 140°
2026-05-04 17:36 51.58748 6.66452 16055 ft 382 kts 120°
2026-05-04 17:37 51.57861 6.70451 15489 ft 381 kts 100°
2026-05-04 17:37 51.57880 6.74681 14923 ft 380 kts 79°
2026-05-04 17:37 51.58648 6.78252 14424 ft 380 kts 65°
2026-05-04 17:37 51.59855 6.82047 13869 ft 380 kts 63°
2026-05-04 17:38 51.61084 6.85805 13267 ft 379 kts 63°
2026-05-04 17:38 51.62295 6.89543 12999 ft 374 kts 63°
2026-05-04 17:38 51.63493 6.93263 12984 ft 374 kts 63°
2026-05-04 17:38 51.64672 6.96943 12994 ft 374 kts 63°
2026-05-04 17:39 51.67060 7.04382 12994 ft 374 kts 63°
2026-05-04 17:39 51.68166 7.08180 12990 ft 373 kts 73°
2026-05-04 17:39 51.68559 7.12293 12790 ft 371 kts 92°
2026-05-04 17:40 51.68058 7.16312 12431 ft 365 kts 113°
2026-05-04 17:40 51.66718 7.19729 12070 ft 359 kts 134°
2026-05-04 17:40 51.64750 7.22070 11713 ft 348 kts 156°
2026-05-04 17:40 51.62461 7.23022 11364 ft 338 kts 178°
2026-05-04 17:41 51.60171 7.22497 11018 ft 330 kts 200°
2026-05-04 17:41 51.58263 7.20643 10683 ft 324 kts 223°
2026-05-04 17:41 51.56976 7.17731 10340 ft 320 kts 246°
2026-05-04 17:41 51.56541 7.14269 10040 ft 315 kts 269°
2026-05-04 17:42 51.56655 7.10812 9982 ft 301 kts 273°
2026-05-04 17:42 51.56814 7.07545 9990 ft 285 kts 273°
2026-05-04 17:42 51.56972 7.04445 9992 ft 270 kts 273°
2026-05-04 17:42 51.57125 7.01502 9992 ft 259 kts 273°
2026-05-04 17:43 51.57273 6.98671 9996 ft 256 kts 273°
2026-05-04 17:43 51.57423 6.95809 9997 ft 256 kts 273°
2026-05-04 17:43 51.57571 6.92955 9994 ft 256 kts 272°
2026-05-04 17:43 51.57366 6.90116 9655 ft 258 kts 246°
2026-05-04 17:44 51.56474 6.87591 9192 ft 260 kts 234°
2026-05-04 17:44 51.55451 6.85218 8734 ft 263 kts 233°
2026-05-04 17:44 51.54388 6.82798 8264 ft 266 kts 233°
2026-05-04 17:44 51.53312 6.80355 7805 ft 268 kts 233°
2026-05-04 17:45 51.52226 6.77915 7359 ft 269 kts 230°
2026-05-04 17:45 51.50797 6.76056 7032 ft 261 kts 202°
2026-05-04 17:45 51.49072 6.75596 6989 ft 245 kts 177°
2026-05-04 17:45 51.47496 6.76255 7003 ft 237 kts 151°
2026-05-04 17:46 51.46137 6.77749 6998 ft 237 kts 144°
2026-05-04 17:46 51.45025 6.79687 6997 ft 240 kts 118°
2026-05-04 17:46 51.44652 6.82313 6781 ft 247 kts 88°
2026-05-04 17:46 51.45174 6.84932 6487 ft 251 kts 57°
2026-05-04 17:47 51.46423 6.86866 6174 ft 250 kts 36°
2026-05-04 17:47 51.47842 6.88413 5870 ft 248 kts 34°
2026-05-04 17:47 51.49284 6.89912 5562 ft 246 kts 33°
2026-05-04 17:47 51.50579 6.91644 5258 ft 241 kts 57°
2026-05-04 17:48 51.51148 6.94085 5035 ft 228 kts 91°
2026-05-04 17:48 51.50818 6.96469 4799 ft 217 kts 124°
2026-05-04 17:48 51.49761 6.98153 4391 ft 217 kts 149°
2026-05-04 17:48 51.48449 6.99402 4025 ft 220 kts 153°
2026-05-04 17:49 51.47132 7.00557 4000 ft 209 kts 153°
2026-05-04 17:49 51.45863 7.01661 4002 ft 206 kts 153°
2026-05-04 17:49 51.44591 7.02715 4002 ft 205 kts 161°
2026-05-04 17:49 51.43204 7.03165 4004 ft 204 kts 181°
2026-05-04 17:50 51.41810 7.02802 3930 ft 203 kts 200°
2026-05-04 17:50 51.40594 7.01663 3750 ft 204 kts 221°
2026-05-04 17:50 51.39678 6.99935 3512 ft 204 kts 231°
2026-05-04 17:50 51.38823 6.98114 3249 ft 205 kts 232°
2026-05-04 17:51 51.37966 6.96292 2964 ft 204 kts 232°
2026-05-04 17:51 51.37130 6.94521 2720 ft 193 kts 232°
2026-05-04 17:51 51.36341 6.92852 2459 ft 182 kts 231°
2026-05-04 17:51 51.35606 6.91300 2218 ft 173 kts 231°
2026-05-04 17:52 51.34886 6.89780 2005 ft 170 kts 230°
2026-05-04 17:52 51.34178 6.88287 1760 ft 168 kts 230°
2026-05-04 17:52 51.33484 6.86820 1517 ft 157 kts 229°
2026-05-04 17:52 51.32862 6.85484 1288 ft 145 kts 231°
2026-05-04 17:53 51.32285 6.84214 1022 ft 138 kts 231°
2026-05-04 17:53 51.31705 6.83001 812 ft 136 kts 229°
2026-05-04 17:53 51.31122 6.81816 645 ft 136 kts 228°
2026-05-04 17:53 51.30569 6.80621 473 ft 135 kts 230°
2026-05-04 17:54 51.29980 6.79434 353 ft 137 kts 231°
2026-05-04 17:54 51.29403 6.78217 181 ft 137 kts 231°
2026-05-04 17:54 51.28872 6.77107 128 ft 97 kts 233°
2026-05-04 17:54 51.28613 6.76568 127 ft 47 kts 232°
2026-05-04 17:55 51.28415 6.76156 126 ft 45 kts 232°
2026-05-04 17:55 51.28301 6.76040 126 ft 18 kts 192°
2026-05-04 17:55 51.28215 6.76065 125 ft 0 kts 154°
2026-05-04 17:56 51.28192 6.76084 126 ft 10 kts 153°
2026-05-04 17:56 51.28138 6.76042 128 ft 9 kts 234°
2026-05-04 17:56 51.28091 6.76037 125 ft 8 kts 152°
2026-05-04 17:56 51.28021 6.76047 128 ft 12 kts 182°
2026-05-04 17:57 51.27929 6.76047 130 ft 14 kts 179°
2026-05-04 17:57 51.27825 6.76043 127 ft 16 kts 183°
2026-05-04 17:57 51.27705 6.76040 130 ft 18 kts 181°
2026-05-04 17:57 51.27600 6.76061 126 ft 14 kts 155°
2026-05-04 17:58 51.27557 6.76130 128 ft 5 kts 60°
2026-05-04 17:58 51.27591 6.76170 128 ft 6 kts 41°
2026-05-04 17:58 51.27609 6.76199 126 ft 0 kts 45°
2026-05-04 17:58 51.27611 6.76201 126 ft 0 kts 44°
2026-05-04 18:00 51.27611 6.76202 130 ft 0 kts 45°